Location: Rometta
(44.2000°N, 10.0500°E)
Time: 10:22:30
(UTC+00:00)

CZ-3B R/B - Visible Passes

Search period start: 14 May 2021 00:00
Search period end: 24 May 2021 00:00
Orbit: 304 x 17371 km, 54.8° (Epoch: 12 May)

Date Brightness Start Highest point End Pass type
(mag) Time Alt. Az. Time Alt. Az. Time Alt. Az.
14 May 4.2 01:20:44 10° WSW 01:43:02 62° NW 01:47:53 10° NE visible
14 May 5.8 21:31:09 10° S 22:17:54 42° SE 22:27:40 10° ENE visible
15 May 4.4 23:46:40 10° SW 00:21:48 85° SE 00:27:58 10° NE visible
16 May 6.3 20:12:18 10° S 20:53:51 28° SE 21:05:57 10° ENE visible
17 May 4.3 02:09:14 10° W 02:23:17 40° NNW 02:27:19 10° NE visible
17 May 5.2 22:13:50 10° SSW 22:59:43 59° SE 23:07:44 10° ENE visible
18 May 6.8 19:06:24 10° SE 19:29:22 15° ESE 19:40:45 10° E visible
19 May 4.3 00:36:26 10° WSW 01:02:11 67° NW 01:07:23 10° NE visible
19 May 6.0 20:46:58 10° S 21:36:24 41° SE 21:46:55 10° ENE visible
20 May 4.4 02:55:34 10° WNW 03:03:34 27° NNW 03:06:43 10° NE visible
20 May 4.6 23:01:17 10° SW 23:40:39 81° SE 23:47:18 10° NE visible
21 May 6.4 19:29:45 10° SSE 20:12:02 27° SE 20:24:49 10° E visible
22 May 4.4 01:25:34 10° WSW 01:42:15 45° NNW 01:46:37 10° NE visible
22 May 5.3 21:28:23 10° SSW 22:18:12 57° SE 22:26:52 10° ENE visible
